Regional Weather Roundup
Issued by NWS

Home | Current Version | Previous Version | Text Only | Print | Product List | Glossary On
Versions: 1 2 3 4 5 6 7 8 9 10 11 12 13 14 15 16 17 18 19 20 21 22 23 24 25 26 27 28 29 30 31 32 33 34 35 36 37 38 39 40 41 42 43 44 45 46 47 48 49 50
000
ASUS43 KMPX 261410
RWRMN
WEATHER ROUNDUP FOR MINNESOTA
NATIONAL WEATHER SERVICE TWIN CITIES/CHANHASSEN MN
800 AM CST THU FEB 26 2015


NOTE: "FAIR" INDICATES FEW OR NO CLOUDS BELOW 12,000 FEET WITH NO
SIGNIFICANT WEATHER AND/OR OBSTRUCTIONS TO VISIBILITY. N/A MEANS
CURRENT SKY AND/OR WEATHER CONDITIONS ARE NOT AVAILABLE.

MNZ060>063-068>070-261500-
   Twin Cities Metro

CITY           SKY/WX    TMP DP  RH WIND       PRES   REMARKS
TWIN CITIES    CLEAR     -1 -11  62 N7        30.43R WCI -14
ST PAUL        SUNNY     -2 -12  62 NW12      30.45R WCI -20
CRYSTAL        CLEAR     -3 -12  65 NW10      30.43R WCI -20
BLAINE         CLEAR     -2  -9  71 NW9       30.42R WCI -18
LAKEVILLE      SUNNY     -6 -13  71 NW6       30.41  WCI -18
EDEN PRAIRIE   CLEAR     -3 -12  65 N10       30.42R WCI -20
SOUTH ST PAUL  SUNNY     -1 -12  60 N8        30.43R WCI -16
LAKE ELMO      FAIR      -2 -11  65 NW8       30.42R WCI -17
$$
MNZ001>005-007-008-013>017-022>024-027-028-261500-
   Northwest Minnesota

CITY           SKY/WX    TMP DP  RH WIND       PRES   REMARKS
BEMIDJI        PTCLDY   -19 -24  77 NW6       30.41R WCI -34
HALLOCK        PTCLDY   -18 -24  76 W2        30.53S
ROSEAU         MOCLDY   -17 -24  70 NW5       30.48R WCI -29
WARROAD        MOCLDY   -18 -26  69 W7        30.46R WCI -35
THIEF RVR FALL PTCLDY   -17 -27  58 NW5       30.49R WCI -29
CROOKSTON      PTCLDY   -13 -18  77 N6        30.55R WCI -27
FOSSTON        PTCLDY   -20 -26  76 NW5       30.46S WCI -33
DETROIT LAKES  CLEAR    -11 -17  77 NW8       30.46R WCI -28
MOORHEAD       CLEAR    -11 -15  84 NW9       30.54R WCI -29
PARK RAPIDS    CLEAR    -16 -21  78 NW8       30.40R WCI -34
MAHNOMEN       FAIR     -15 -20  78 NW8       30.47R WCI -33
$$
MNZ006-009>011-018-025>026-261500-
   North Central Minnesota

CITY           SKY/WX    TMP DP  RH WIND       PRES   REMARKS
BAUDETTE       PTCLDY   -20 -25  77 W7        30.42R WCI -37
FLAG ISLAND    PTCLDY   -20 -27  69 NW8       30.44R WCI -39
INTL FALLS     PTCLDY   -20 -25  77 W5        30.40R WCI -33
WASKISH        PTCLDY   -17 -22  76 CALM      30.43R
BIG FORK       PTCLDY   -18 -26  69 CALM      30.39R
LONGVILLE      CLEAR    -15 -18  84 NW5       30.41R WCI -27
GRAND RAPIDS   CLEAR    -15 -18  84 NW7       30.36R WCI -31
CRANE LAKE     FAIR     -29 -36  68 CALM      30.41R
ORR            MOCLDY   -22 -27  76 CALM      30.34R
COOK           PTCLDY   -24 -29  76 CALM      30.36R
WALKER         FAIR     -17 -22  76 W5        30.41S WCI -29
$$
MNZ012-019>021-037-261500-
   Northeast Minnesota

CITY           SKY/WX    TMP DP  RH WIND       PRES   REMARKS
DULUTH         PTCLDY   -12 -19  71 NW8       30.33R WCI -29
ELY            PTCLDY   -27 -33  75 CALM        N/A
HIBBING        PTCLDY   -16 -22  74 N6        30.36R WCI -31
EVELETH        PTCLDY   -15 -22  70 CALM      30.36R
DULUTH HARBOR  PTCLDY    -6 -15  65 CALM      30.44R
TWO HARBORS    MOSUNNY   -6 -15  65 CALM      30.34R
SILVER BAY     MOSUNNY   -8 -17  65 NW5       30.33R WCI -19
GRAND MARAIS     N/A     -5 -16  59 NW7       30.40R WCI -19
G MARAIS ARPRT MOSUNNY  -15 -22  70 CALM      30.22R
$$
MNZ029>031-032-039>041-046>048-054>057-064-261500-
   West Central Minnesota

CITY           SKY/WX    TMP DP  RH WIND       PRES   REMARKS
FERGUS FALLS   CLEAR    -11 -18  70 N6        30.53S WCI -25
WHEATON        CLEAR    -13 -18  77 W6        30.54R WCI -27
MORRIS         CLEAR     -9 -15  77 NW12      30.47R WCI -29
ALEXANDRIA     FAIR     -10 -16  74 NW9       30.42R WCI -27
ELBOW LAKE     FAIR     -11 -16  80 NW8       30.47R WCI -28
WADENA         CLEAR    -15 -18  84 NW9       30.42R WCI -33
GLENWOOD       CLEAR     -9 -15  77 NW10      30.43R WCI -28
APPLETON       CLEAR     -8 -15  71 N12       30.50R WCI -27
BENSON         CLEAR     -8 -15  71 N6        30.47R WCI -21
ORTONVILLE     CLEAR     -9 -17  70 NW8       30.50R WCI -26
MADISON        CLEAR     -6 -13  71 NW15      30.50R WCI -27
WILLMAR        FAIR      -9 -17  70 NW7       30.46R WCI -24
$$
MNZ033>034-036-042>043-049>051-058-059-261500-
   Central Minnesota

CITY           SKY/WX    TMP DP  RH WIND       PRES   REMARKS
ST CLOUD       CLEAR     -8 -15  71 NW8       30.43R WCI -24
SAUK CENTRE    FAIR     -10 -16  74 NW9       30.43R WCI -27
PAYNESVILLE    CLEAR    -10 -16  75 W6        30.44R WCI -24
AITKIN         CLEAR     -9 -17  70 W3        30.39R
PINE RIVER     CLEAR    -15 -18  84 NW3       30.43R
BRAINERD       CLEAR    -12 -19  71 N6        30.42R WCI -26
STAPLES        CLEAR    -15 -20  76 NW3       30.42R
LONG PRAIRIE   FAIR      -9 -17  70 NW7       30.42R WCI -24
LITTLE FALLS   CLEAR     -9 -17  70 NW6       30.44R WCI -23
LITCHFIELD     CLEAR     -8 -13  77 CALM      30.44
BUFFALO        CLEAR     -6 -13  71 NW9       30.44R WCI -22
MAPLE LAKE     CLEAR     -4 -11  75 NW9       30.44R WCI -21
$$
MNZ037-044-045-052-053-261500-
   East Central Minnesota

CITY           SKY/WX    TMP DP  RH WIND       PRES   REMARKS
PRINCETON      CLEAR     -8 -15  71 NW7       30.42R WCI -22
MORA           CLEAR     -8 -15  71 N8        30.42R WCI -23
CAMBRIDGE      CLEAR     -6 -15  65 NW6       30.41R WCI -18
RUSH CITY      PTCLDY    -7 -15  68 NW6       30.42R WCI -20
MOOSE LAKE     CLEAR     -9 -17  70 CALM      30.38R
HINCKLEY       FAIR      -8 -15  71 N9        30.41R WCI -25
CLOQUET        PTCLDY   -11 -18  70 NW8       30.36R WCI -28
MCGREGOR       CLEAR    -11 -17  77 NW8       30.40R WCI -28
$$
MNZ071>073-080-081-089-090-097-098-261500-
   Southwest Minnesota

CITY           SKY/WX    TMP DP  RH WIND       PRES   REMARKS
MONTEVIDEO     CLEAR     -8 -11  84 N8        30.49R WCI -23
GRANITE FALLS  CLEAR    -10 -15  78 NW9       30.50R WCI -27
CANBY          CLEAR     -7 -13  74 NW10      30.49R WCI -25
MARSHALL       CLEAR     -8 -15  71 NW12      30.48R WCI -27
REDWOOD FALLS  CLEAR     -8 -14  74 NW9       30.47R WCI -25
OLIVIA         CLEAR     -9 -15  77 NW9       30.46R WCI -27
PIPESTONE      CLEAR    -11 -17  77 NW12      30.41R WCI -31
WINDOM         CLEAR     -8 -15  71 NW15      30.41R WCI -29
WORTHINGTON    CLEAR     23 -17  16 NW10      30.41R WCI  12
JACKSON        PTCLDY    -8 -15  71 NW15      30.40R WCI -29
TRACY          CLEAR     -8 -13  77 NW12      30.45R WCI -27
SLAYTON        CLEAR     -8 -15  74 NW9       30.41R WCI -26
$$
MNZ065>067-074>077-082>085-091>093-261500-
   South Central Minnesota

CITY           SKY/WX    TMP DP  RH WIND       PRES   REMARKS
MANKATO        CLEAR     -8 -17  65 NW7       30.41R WCI -22
NEW ULM        CLEAR     -9 -17  70 NW10      30.44R WCI -28
ST JAMES       CLEAR     -9 -15  77 NW10      30.45R WCI -28
FAIRMONT       CLEAR     -8 -11  84 NW13      30.39R WCI -28
GLENCOE        CLEAR     -6 -11  77 NW6       30.43R WCI -18
FARIBAULT      SUNNY     -6 -13  71 NW7       30.39R WCI -20
OWATONNA       SUNNY    -11 -17  77 CALM      30.38R
WASECA         SUNNY     -8 -13  77 NW9       30.41R WCI -25
ALBERT LEA     SUNNY     -6 -13  71 NW7       30.36R WCI -20
$$
MNZ078>079-086>088-094>096-261500-
   Southeast Minnesota

CITY           SKY/WX    TMP DP  RH WIND       PRES   REMARKS
ROCHESTER      SUNNY     -8 -15  71 NW12      30.33R WCI -27
RED WING       SUNNY     -2 -15  55 CALM      30.40R
STANTON        SUNNY     -8 -15  69 CALM      30.40R
DODGE CENTER   MOSUNNY   -8 -15  71 N8        30.33R WCI -23
WINONA         SUNNY     -2  -9  71 N3        30.40R
AUSTIN         SUNNY     -6 -15  65 NW7       30.35R WCI -20
PRESTON        SUNNY     -5 -13  66 N6        30.32R WCI -17
$$
ABBREVIATIONS USED IN REMARKS
   TC - TEMPERATURES IN CELSIUS
  WCI - WIND CHILL INDEX
   HX - HEAT INDEX
  VSB - VISIBILITY
$$



USA.gov is the U.S. government's official web portal to all federal, state and local government web resources and services.